Regional Weather Roundup
Issued by NWS

Home | Current Version | Previous Version | Text Only | Print | Product List | Glossary On
Versions: 1 2 3 4 5 6 7 8 9 10 11 12 13 14 15 16 17 18 19 20 21 22 23 24 25 26 27 28 29 30 31 32 33 34 35 36 37 38 39 40 41 42 43 44 45 46 47 48
000
ASPQ40 PGUM 241112
RWRPQ
WEATHER ROUNDUP FOR THE MARIANAS AND MICRONESIA
NATIONAL WEATHER SERVICE TIYAN GU
900 PM CHST THU JUL 24 2014

GUZ001>004-241200-
MARIANA ISLANDS-

CITY           SKY/WX    TMP DP  RH WIND       PRES   REMARKS
GUAM AIRPORT   PTCLDY    82  79  89 E7        29.79S HX  93
ANDERSEN AFB   PTCLDY    81  75  83 E12       29.79S
ROTA AIRPORT   NOT AVBL
TINIAN AP      NOT AVBL
SAIPAN AP      PTCLDY    82  77  83 E7        29.80S HX  91

$$

PMZ161-241200-
REPUBLIC OF PALAU-

CITY           SKY/WX    TMP DP  RH WIND       PRES   REMARKS
KOROR AP       CLOUDY    81  81 100 W12G17    29.73R HX  91
KOROR WSO      CLOUDY    81  75  83 NW12      29.73R

$$

PMZ171>174-241200-
FEDERATED STATES OF MICRONESIA-

CITY           SKY/WX    TMP DP  RH WIND       PRES   REMARKS
YAP AIRPORT    PTCLDY    82  77  83 VRB6      29.74R HX  91
CHUUK AP       CLOUDY    81  77  89 VRB5      29.77R
POHNPEI AP     NOT AVBL
POHNPEI WSO    LGT RAIN  75  73  94 SE5       29.89S
KOSRAE AP      NOT AVBL

$$

PMZ181-241200-
REPUBLIC OF THE MARSHALL ISLANDS-

CITY           SKY/WX    TMP DP  RH WIND       PRES   REMARKS
KWAJALEIN AP   CLEAR     84  73  70 E10       29.87S HX  91
MAJURO AP      NOT AVBL
MAJURO WSO     MOCLDY    82  79  89 NE15      29.83S HX  93

$$




USA.gov is the U.S. government's official web portal to all federal, state and local government web resources and services.